Weather History for Andrews, NC

Change the Weather History Date:

Thursday, March 15, 2012

  Actual Average (KTYS) Record (KTYS)
Temperature  
Mean Temperature 60 °F 50 °F  
Max Temperature 75 °F 61 °F 82 °F (2012)
Min Temperature 46 °F 39 °F 6 °F (1993)
Degree Days  
Heating Degree Days 4 15  
Month to date heating degree days 255  
Since 1 July heating degree days 3151  
Cooling Degree Days 0 0  
Month to date cooling degree days 0  
Year to date cooling degree days 0  
Growing Degree Days 10 (Base 50)    
Moisture  
Dew Point 55 °F    
Average Humidity 91    
Maximum Humidity 100    
Minimum Humidity 61    
Precipitation  
Precipitation 0.12 in 0.14 in 2.26 in (1875)
Month to date precipitation 2.06  
Year to date precipitation 10.64  
Snow  
Snow 0.00 in 0.00 in - ()
Month to date snowfall 0.5  
Since 1 July snowfall 5.6  
Snow Depth -    
Sea Level Pressure  
Sea Level Pressure 30.29 in    
Wind  
Wind Speed 1 mph (NW)    
Max Wind Speed 7 mph    
Max Gust Speed -    
Visibility 10 miles    
Events      
T = Trace of Precipitation, MM = Missing Value Source: NWS Daily Summary

Daily Weather History Graph

Daily Weather History Graph

Search for Another Location

Airport:

Trip Planner

Search our weather history database for the weather conditions in past years. The results will help you decide how hot, cold, wet, or windy it might be!

Date:

Astronomy

Mar. 15, 2012 Rise Set
Actual Time 7:45 AM EDT 7:43 PM EDT
Civil Twilight 7:20 AM EDT 8:08 PM EDT
Nautical Twilight 6:50 AM EDT 8:38 PM EDT
Astronomical Twilight 6:21 AM EDT 9:07 PM EDT
Moon 2:59 AM EDT (3/15) 1:12 PM EDT (3/15)
Length of Visible Light 12h 48m
Length of Day
11h 58m
Last Quarter, 43% of the Moon is Illuminated
Mar 15
Last Quarter
Mar 22
New
Mar 30
First Quarter
Apr 6
Full
Apr 13
Last Quarter

Hourly Weather History & Observations

Time (EDT) Temp. Dew Point Humidity Pressure Visibility Wind Dir Wind Speed Gust Speed Precip Events Conditions
12:15 AM 53.6 °F 51.8 °F 94% 30.28 in 10.0 mi Calm Calm - N/A   Clear
12:35 AM 51.8 °F 51.8 °F 100% 30.28 in 10.0 mi Calm Calm - N/A   Clear
12:55 AM 51.8 °F 50.0 °F 94% 30.27 in 10.0 mi Calm Calm - N/A   Clear
1:15 AM 51.8 °F 50.0 °F 94% 30.27 in 10.0 mi Calm Calm - N/A   Clear
1:35 AM 50.0 °F 50.0 °F 100% 30.28 in 10.0 mi WSW 3.5 mph - N/A   Clear
1:55 AM 50.0 °F 50.0 °F 100% 30.28 in 4.0 mi Calm Calm - N/A   Clear
2:15 AM 50.0 °F 50.0 °F 100% 30.28 in 10.0 mi Calm Calm - N/A   Clear
2:35 AM 51.8 °F 50.0 °F 94% 30.29 in 10.0 mi NE 3.5 mph - N/A   Clear
2:55 AM 51.8 °F 50.0 °F 94% 30.29 in 10.0 mi Calm Calm - N/A   Clear
3:15 AM 48.2 °F 48.2 °F 100% 30.30 in 10.0 mi Calm Calm - N/A   Clear
3:35 AM 50.0 °F 48.2 °F 94% 30.30 in 10.0 mi Calm Calm - N/A   Clear
3:55 AM 46.4 °F 46.4 °F 100% 30.30 in 10.0 mi Calm Calm - N/A   Clear
4:15 AM 50.0 °F 50.0 °F 100% 30.29 in 10.0 mi Calm Calm - N/A   Scattered Clouds
4:35 AM 50.0 °F 48.2 °F 94% 30.28 in 10.0 mi Calm Calm - N/A   Scattered Clouds
4:55 AM 48.2 °F 46.4 °F 93% 30.28 in 10.0 mi Calm Calm - N/A   Scattered Clouds
5:15 AM 48.2 °F 48.2 °F 100% 30.28 in 10.0 mi Calm Calm - N/A   Clear
5:35 AM 48.2 °F 48.2 °F 100% 30.28 in 7.0 mi Calm Calm - N/A   Clear
5:55 AM 48.2 °F 48.2 °F 100% 30.29 in 10.0 mi Calm Calm - N/A   Clear
6:15 AM 50.0 °F 50.0 °F 100% 30.29 in 10.0 mi Calm Calm - N/A   Clear
6:35 AM 48.2 °F 48.2 °F 100% 30.30 in 7.0 mi Calm Calm - N/A   Clear
6:55 AM 46.4 °F 46.4 °F 100% 30.31 in 7.0 mi Calm Calm - N/A   Clear
7:15 AM 48.2 °F 48.2 °F 100% 30.32 in 10.0 mi Calm Calm - N/A   Scattered Clouds
7:35 AM 48.2 °F 48.2 °F 100% 30.33 in 10.0 mi Calm Calm - N/A   Scattered Clouds
7:55 AM 50.0 °F 50.0 °F 100% 30.33 in 10.0 mi Calm Calm - N/A   Mostly Cloudy
8:15 AM 50.0 °F 50.0 °F 100% 30.33 in 10.0 mi Calm Calm - N/A   Mostly Cloudy
8:35 AM 50.0 °F 50.0 °F 100% 30.33 in 10.0 mi Calm Calm - N/A   Scattered Clouds
8:55 AM 51.8 °F 51.8 °F 100% 30.33 in 10.0 mi Calm Calm - N/A   Scattered Clouds
9:15 AM 55.4 °F 53.6 °F 94% 30.34 in 10.0 mi Calm Calm - N/A   Clear
9:35 AM 55.4 °F 53.6 °F 94% 30.34 in 10.0 mi Calm Calm - N/A   Mostly Cloudy
9:55 AM 55.4 °F 53.6 °F 94% 30.34 in 10.0 mi SE 3.5 mph - N/A   Scattered Clouds
10:15 AM 55.4 °F 53.6 °F 94% 30.34 in 10.0 mi WNW 3.5 mph - N/A   Clear
10:35 AM 57.2 °F 53.6 °F 88% 30.34 in 10.0 mi Calm Calm - N/A   Clear
10:55 AM 60.8 °F 55.4 °F 82% 30.34 in 10.0 mi Calm Calm - N/A   Clear
11:15 AM 64.4 °F 57.2 °F 77% 30.34 in 10.0 mi ENE 3.5 mph - N/A   Clear
11:35 AM 69.8 °F 59.0 °F 68% 30.33 in 10.0 mi East 3.5 mph - N/A   Clear
11:55 AM 71.6 °F 59.0 °F 64% 30.32 in 10.0 mi Calm Calm - N/A   Clear
12:15 PM 73.4 °F 60.8 °F 65% 30.31 in 10.0 mi WNW 3.5 mph - N/A   Clear
12:35 PM 75.2 °F 60.8 °F 61% 30.31 in 10.0 mi Calm Calm - N/A   Scattered Clouds
12:55 PM 75.2 °F 60.8 °F 61% 30.30 in 10.0 mi NE 3.5 mph - N/A   Scattered Clouds
1:15 PM 71.6 °F 62.6 °F 73% 30.30 in 10.0 mi NNW 4.6 mph - 0.01 in   Scattered Clouds
1:35 PM 69.8 °F 66.2 °F 88% 30.30 in 7.0 mi North 4.6 mph - 0.07 in   Overcast
1:55 PM 68.0 °F 66.2 °F 94% 30.29 in 7.0 mi Calm Calm - 0.11 in   Mostly Cloudy
2:15 PM 68.0 °F 66.2 °F 94% 30.28 in 10.0 mi Calm Calm - 0.01 in   Scattered Clouds
2:35 PM 68.0 °F 66.2 °F 94% 30.28 in 10.0 mi SSW 3.5 mph - 0.01 in   Clear
2:55 PM 68.0 °F 68.0 °F 100% 30.26 in 10.0 mi Calm Calm - 0.01 in   Clear
3:15 PM 68.0 °F 66.2 °F 94% 30.25 in 7.0 mi Calm Calm - N/A   Clear
3:35 PM 69.8 °F 68.0 °F 94% 30.25 in 10.0 mi NE 3.5 mph - N/A   Clear
3:55 PM 71.6 °F 64.4 °F 78% 30.24 in 10.0 mi Calm Calm - N/A   Clear
4:15 PM 73.4 °F 64.4 °F 73% 30.23 in 10.0 mi Calm Calm - N/A   Clear
4:35 PM 71.6 °F 68.0 °F 88% 30.23 in 10.0 mi West 6.9 mph - N/A   Clear
4:55 PM 71.6 °F 68.0 °F 88% 30.23 in 10.0 mi SW 3.5 mph - N/A   Scattered Clouds
5:15 PM 73.4 °F 68.0 °F 83% 30.22 in 10.0 mi West 3.5 mph - N/A   Scattered Clouds
5:35 PM 75.2 °F 64.4 °F 69% 30.20 in 10.0 mi Calm Calm - N/A   Clear
5:55 PM 77.0 °F 64.4 °F 65% 30.20 in 10.0 mi Calm Calm - N/A   Clear
6:15 PM 77.0 °F 64.4 °F 65% 30.20 in 10.0 mi Calm Calm - N/A   Clear
6:35 PM 75.2 °F 68.0 °F 78% 30.20 in 10.0 mi Calm Calm - N/A   Clear
6:55 PM 69.8 °F 64.4 °F 83% 30.21 in 10.0 mi Calm Calm - N/A   Clear
7:15 PM 69.8 °F 62.6 °F 78% 30.21 in 10.0 mi Calm Calm - N/A   Clear
7:35 PM 66.2 °F 62.6 °F 88% 30.22 in 10.0 mi Calm Calm - N/A   Clear
7:55 PM 66.2 °F 62.6 °F 88% 30.22 in 10.0 mi Calm Calm - N/A   Clear
8:15 PM 64.4 °F 60.8 °F 88% 30.22 in 10.0 mi Calm Calm - N/A   Clear
8:35 PM 64.4 °F 60.8 °F 88% 30.22 in 10.0 mi Calm Calm - N/A   Clear
8:55 PM 62.6 °F 60.8 °F 94% 30.23 in 10.0 mi Calm Calm - N/A   Scattered Clouds
9:15 PM 62.6 °F 60.8 °F 94% 30.23 in 10.0 mi Calm Calm - N/A   Scattered Clouds
9:35 PM 62.6 °F 62.6 °F 100% 30.25 in 10.0 mi Calm Calm - N/A   Scattered Clouds
9:55 PM 62.6 °F 60.8 °F 94% 30.25 in 10.0 mi Calm Calm - N/A   Scattered Clouds
10:15 PM 62.6 °F 60.8 °F 94% 30.25 in 10.0 mi Calm Calm - N/A   Scattered Clouds
10:35 PM 62.6 °F 60.8 °F 94% 30.26 in 10.0 mi Calm Calm - N/A   Mostly Cloudy
10:55 PM 66.2 °F 55.4 °F 68% 30.33 in 10.0 mi WNW 21.9 mph 34.5 mph N/A   Overcast
11:15 PM 62.6 °F 57.2 °F 82% 30.37 in 7.0 mi SSE 5.8 mph - 0.12 in   Overcast
11:35 PM 60.8 °F 59.0 °F 94% 30.39 in 7.0 mi NNE 8.1 mph - 0.18 in   Overcast
11:55 PM 59.0 °F 59.0 °F 100% 30.38 in 7.0 mi East 5.8 mph - 0.26 in   Overcast